Overview Statistics Trail Chart Weather Telemetry Raw packets
 

This is the latest recevied weather packets stored in our database for station/object WW5JC. If no packets are shown the sender has not sent any weather packets the latest 10 day(s).

<< 36 37 38 39 40 41 42 >>
Time Temp. Humidity Pressure Rain* Wind** Luminosity Snow
1788381130 36.67° C 46% 1015.4 hPa 0 mm - 575 W/m² -
1788380825 35.56° C 48% 1015.7 hPa 0 mm - 584 W/m² -
1788380522 36.11° C 47% 1015.6 hPa 0 mm - 597 W/m² -
1788380217 36.11° C 46% 1015.6 hPa 0 mm - 591 W/m² -
1788379916 36.67° C 45% 1015.8 hPa 0 mm - 596 W/m² -
1788379611 35.56° C 48% 1015.6 hPa 0 mm - 599 W/m² -
1788379307 36.11° C 47% 1016 hPa 0 mm - 607 W/m² -
1788379002 35.56° C 50% 1015.9 hPa 0 mm - 620 W/m² -
1788378702 35° C 49% 1015.9 hPa 0 mm - 491 W/m² -
1788378401 35.56° C 49% 1016.2 hPa 0 mm - 633 W/m² -
1788378097 35° C 49% 1016 hPa 0 mm - 655 W/m² -
1788377793 36.11° C 48% 1016 hPa 0 mm - 260 W/m² -
1788377492 35° C 48% 1016.2 hPa 0 mm - 654 W/m² -
1788377185 35° C 51% 1016.3 hPa 0 mm - 687 W/m² -
1788376884 35° C 49% 1016.3 hPa 0 mm - 700 W/m² -
1788376579 35.56° C 50% 1016.5 hPa 0 mm - 673 W/m² -
1788376274 35° C 50% 1016.5 hPa 0 mm - 686 W/m² -
1788375970 35° C 50% 1016.4 hPa 0 mm - 697 W/m² -
1788375665 35° C 50% 1016.4 hPa 0 mm - 675 W/m² -
1788375360 35° C 51% 1016.7 hPa 0 mm - 686 W/m² -
1788375056 34.44° C 50% 1016.7 hPa 0 mm - 678 W/m² -
1788374751 35° C 50% 1017 hPa 0 mm - 679 W/m² -
1788374446 34.44° C 50% 1017 hPa 0 mm - 685 W/m² -
1788374143 34.44° C 52% 1017 hPa 0 mm - 209 W/m² -
1788373839 34.44° C 52% 1017.2 hPa 0 mm - 680 W/m² -

* Rain latest hour (hover to see other rain measurements)
** Current wind speed in m/s (hover to see current wind gust speed)